www.pogodaiklimat.ru
ПОГОДА в Варена

Архив погоды в Варена (Литва)

Время
(UTC), дата
18 10.07
21 10.07
00 11.07
03 11.07
06 11.07
09 11.07
12 11.07
15 11.07
18 11.07
21 11.07
00 12.07
03 12.07
06 12.07
09 12.07
12 12.07
15 12.07
18 12.07
21 12.07
00 13.07
03 13.07
06 13.07
09 13.07
12 13.07
15 13.07
18 13.07
21 13.07
00 14.07
03 14.07
06 14.07
09 14.07
12 14.07
15 14.07
18 14.07
21 14.07
00 15.07
03 15.07
06 15.07
09 15.07
12 15.07
15 15.07
18 15.07
21 15.07
00 16.07
03 16.07
06 16.07
09 16.07
12 16.07
15 16.07
18 16.07
21 16.07
03 17.07
06 17.07
09 17.07
12 17.07
15 17.07
Ветер
(напр.,м/с)
Видим. Явления Облачность Т
(С)
Тd
(С)
f
(%)
Тe
(С)
Тes
(С)
Комфортность P
(гПа)
Po
(гПа)
Тmin
(С)
Tmax
(С)
R
(мм)
R24
(мм)
S
(см)
В 2-5 {9} 18 км ясно +25.6 +12.4 44 +27 +27 жарко 1020.9 1008.2 +28.9
В 4-6 {6} 20 км ясно +22.7 +11.5 49 +25 +25 комфорт 1020.7 1007.9
В 2-4 {7} 20 км ясно +20.3 +11.9 58 +23 +23 комфорт 1020.5 1007.6
ЮВ 2-5 {6} 20 км ясно +19.7 +11.7 60 +22 +22 комфорт 1019.4 1006.6
ЮВ 3-5 {5} 20 км 6/0
[Cs]
+23.7 +14.8 57 +26 +31 жарко 1018.7 1006.0 +18.8
ЮВ 4-8 {8} 20 км 3/1 1000 м
[Cu hum Ci fib]
+28.8 +18.2 53 +34 +42 очень душно 1017.2 1004.7
ЮВ 6-11 {12} 20 км 4/3 1000 м
[Cu med, cong Cs]
+31.9 +17.7 43 +36 +40 очень душно 1015.1 1002.7
СЗ 4-9 {12} 20 км 9/5 1500 м
[Cb calv Ac cuf Ci fib]
+25.8 +17.5 60 +30 +31 душно 1015.7 1003.1
СВ 3-5 {11} 8000 м ливневой дождь 9/0 +17.8 +17.6 99 +18 +18 1016.4 1003.3 +33.3 14
ЮВ 3-5 {7} 19 км слаб. ливневой дождь 9/0 +18.1 +17.9 99 +18 +18 1016.1 1003.3 19
СВ 2-3 {5} 8000 м слаб. ливневой дождь 9/0 +18.1 +18.0 99 +19 +19 1014.4 1001.5 6
штиль 0-1 {3} 400 м туман, небо не видно 10/0 +17.7 +17.5 99 +18 +18 1016.1 1003.1 0.2
З 2-3 {3} 20 км {ливн. дождь, туман} 8/4 600 м
[Sc diur, vesp Ac trans]
+20.8 +19.3 91 +26 +28 душно 1016.1 1003.3 +17.6 6
СЗ 1-3 {4} 20 км 3/1 1000 м
[Cu hum Ac trans]
+25.5 +17.6 62 +30 +43 душно 1015.7 1003.1
З 2-4 {5} 20 км 9/6 1000 м
[Cu med, cong Ac lent]
+27.2 +17.2 54 +31 +33 душно 1015.3 1002.8
СЗ 2-4 {6} 20 км 8/4 1000 м
[Cb calv Ac cuf Ci fib]
+27.8 +17.6 54 +32 +34 душно 1014.4 1001.9
СЗ 1-1 {5} 20 км ясно +25.0 +19.1 70 +30 +30 душно 1014.1 1001.5 +28.9
штиль 0-1 {1} 10 км ясно +19.7 +19.4 98 +22 +22 комфорт 1014.0 1001.1
СВ 1-1 {1} 13 км дымка ясно +18.0 +17.8 99 +19 +19 1012.8 999.9
СВ 1-2 {3} 20 км ясно +19.6 +18.2 92 +23 +24 комфорт 1011.3 998.5
З 4-9 {9} 4100 м гроза, ливневой дождь 9/8 1140 м
[Cb cap Ac cuf]
+22.4 +22.1 98 +30 +30 очень душно 1011.0 998.1 +17.5 4
СВ 1-3 {9} 19 км {гроза, ливн. дождь} 9/0
[Ac As]
+23.7 +23.0 96 +31 +38 очень душно 1008.7 996.1
Ю 3-5 {7} 20 км {гроза, ливн. дождь} 6/3 1000 м
[Cu med, cong Ac trans]
+30.0 +20.8 58 +37 +43 очень душно 1007.6 995.3
ЮЗ 3-7 {9} 20 км 8/3 1000 м
[Cu med, cong Cs]
+30.8 +15.9 41 +34 +36 очень душно 1007.6 995.3
З 2-5 {9} 20 км ясно +26.0 +17.6 60 +30 +30 душно 1009.9 997.4 +31.3 3
ЮВ 1-1 {5} 15 км ясно +19.1 +18.8 98 +22 +22 комфорт 1011.7 998.9
З 1-1 {1} 13 км в посл. час туман ясно +17.0 +16.9 99 +18 +18 1013.5 1000.5
ЮЗ 1-2 {2} 14 км туман местами 1/0 +15.9 +15.7 99 +17 +17 1014.4 1001.4
ЮЗ 1-3 {3} 20 км {туман} 8/6 540 м
[Cu Sc Cs]
+21.1 +16.5 75 +25 +27 комфорт 1015.9 1003.1 +15.5
СВ 2-3 {4} 20 км 9/3 1000 м
[Cu med, cong Ac As Cs]
+23.2 +16.8 67 +28 +34 душно 1014.6 1001.9
СЗ 2-4 {4} 20 км в посл. час дождь 9/3 600 м
[Cu med, cong Ac As]
+22.1 +16.8 72 +26 +30 душно 1015.5 1002.7
С 3-5 {6} 20 км {дождь} 8/4 1020 м
[Cu med, cong Cs]
+23.4 +15.8 62 +28 +30 душно 1014.9 1002.2
С 1-3 {5} 20 км ясно +21.4 +15.2 68 +25 +25 комфорт 1015.6 1002.8 +23.9
штиль 0-1 {3} 12 км дымка ясно +15.7 +15.6 99 +15 +15 1016.8 1003.7
В 1-1 {1} 600 м туман местами 4/0 +13.5 +13.4 99 +14 +14 1017.1 1003.9
штиль 0-1 {1} 16 км 1/0 +12.2 +12.0 99 +12 +12 1017.3 1004.1
СВ 1-1 {2} 20 км {туман} 9/9 1470 м
[Sc]
+17.8 +15.5 86 +19 +20 1017.3 1004.3 +11.9
СВ 2-4 {5} 20 км 10/10 1500 м
[Sc]
+23.2 +16.1 64 +28 +28 душно 1016.5 1003.8
С 2-3 {4} 20 км 8/6 1440 м
[Cu Sc Ac trans]
+25.2 +17.2 61 +29 +33 душно 1016.1 1003.5
СВ 1-2 {4} 20 км 8/8 1500 м
[Cu med, cong]
+25.6 +16.7 58 +29 +30 душно 1015.6 1002.9
СВ 1-1 {3} 20 км ясно +24.3 +18.1 68 +29 +29 душно 1015.7 1003.0 +26.9
В 1-1 {1} 2200 м в посл. час туман ясно +17.2 +17.1 99 +18 +18 1016.6 1003.6
СВ 1-1 {1} 4900 м в посл. час туман ясно +15.1 +15.0 99 +16 +16 1016.8 1003.7
В 1-1 {1} 9000 м дымка ясно +14.1 +13.9 99 +14 +15 1017.0 1003.9
ЮВ 2-3 {4} 20 км 3/0
[Cs]
+24.4 +18.5 70 +29 +35 душно 1017.1 1004.4 +13.9
ЮВ 2-5 {6} 18 км 6/5 1350 м
[Cu med, cong As trans]
+28.2 +17.3 52 +32 +39 душно 1016.2 1003.7
В 3-6 {9} 20 км 6/3 1000 м
[Cu med, cong As trans Cs]
+29.6 +16.0 44 +33 +39 душно 1015.3 1003.0
В 4-6 {8} 20 км 3/1 1000 м
[Cu hum Ci fib]
+29.9 +13.4 36 +31 +34 жарко 1013.8 1001.4
В 2-3 {8} 20 км ясно +26.6 +15.6 51 +30 +30 душно 1013.3 1000.7 +30.7
В 2-4 {4} 20 км 8/8 1500 м +24.0 +16.5 63 +27 +27 жарко 1012.4 999.7
Ю 1-2 {4} 6000 м дымка 9/0 +19.2 +19.1 99 +22 +22 комфорт 1014.1 1001.2 4
Ю 2-4 {4} 18 км {ливн. дождь} 9/9 630 м
[Sc]
+21.5 +20.3 93 +27 +28 душно 1015.6 1002.9 +19.2 4
З 2-4 {7} 20 км 8/5 600 м
[Cu med, cong Ac trans Ci fib]
+25.5 +18.5 65 +30 +35 душно 1016.6 1004.0
ЮЗ 2-6 {7} 20 км 8/4 1000 м
[Cu med, cong Ci ing]
+28.0 +16.7 50 +32 +39 душно 1016.8 1004.3
З 2-4 {7} 20 км 8/4 1000 м
[Cu med, cong Ci ing]
+28.8 +15.5 44 +32 +34 душно 1016.4 1003.9
Местоположение метеостанции Варена (Литва): широта 54.25 долгота 24.55 высота над уровнем моря 111 м.
В архиве по умолчанию представлена погода в Варена за последнюю неделю. Архивные данные за месяц целиком и за предыдущие месяцы, начиная с января 2011 года, Вы можете получить, выбрав интересующий диапазон дат из раскрывающегося списка и нажав кнопку "Найти!".
*Определитесь, кто Вы:
Внимание! Время в таблицах - всемирное. Для получения местного времени необходимо прибавить поправку, которая равна 2 ч.
Некоторые строки с данными для отдельных станций могут быть выделены курсивом. Это означает, что фактические данные отсутствуют по различным причинам, а приведенные значения являются расчетными модельными данными для данного пункта наблюдений.
Смотрите также архив погоды в соседних городах и на ближайших метеорологических станциях:
Партнеры нашего сайта:      
Пояснения к столбцам:
  • Ветер - указаны скорость ветра в м/с - средняя за 10 мин, порывы в срок и между сроками (в фигурных скобках) и направление, откуда дует ветер: С - северный,
  • СВ - северо-восточный, В - восточный, ЮВ - юго-восточный, Ю - южный, ЮЗ - юго-западный, З - западный, СЗ - северо-западный.
  • Видимость - горизонтальная дальность видимости в метрах или километрах. При видимости от 1 до 10 км при отсутствии осадков обычно наблюдается дымка, при ухудшении видимости до 1 км и менее - туман. В сухую погоду видимость может ухудшаться дымом, пылью или мглою.
  • Явления - указаны атмосферные явления, наблюдавшиеся в срок или в последний час перед сроком; фигурными скобками обозначены явления, наблюдавшиеся между сроками (за 1-3 часа до срока); квадратными скобками обозначены град или гололедные отложения с указанием их диаметра в мм.
  • Облачность - указаны через наклонную черту общая и нижняя облачность в баллах и высота нижней границы облаков в метрах; квадратными скобками обозначены формы облаков: Ci - перистые, Cs - перисто-слоистые, Cc - перисто-кучевые, Ac - высококучевые, As - высокослоистые, Sc - слоисто-кучевые, Ns - слоисто-дождевые, Cu - кучевые, Cb - кучево-дождевые. Подробнее классификацию облаков см. в Атласе облаков (PDF).
  • T - Температура воздуха - температура, измеренная на высоте 2 м над землей.
  • Td - Температура точки росы - температура, при понижении до которой содержащийся в воздухе водяной пар достигнет насыщения.
  • f - Относительная влажность воздуха - влажноcть воздуха, измеренная на высоте 2 м над землей.
  • Te - Эффективная температура - температура, которую ощущает одетый по сезону человек в тени. Характеристика душности погоды. При расчете учитывается влияние влажности воздуха и скорости ветра на теплоощущения человека.
  • Tes - Эффективная температура на солнце - температура, которую ощущает человек, с поправкой на солнечный нагрев. Характеристика знойности погоды. Зависит от высоты солнца над горизонтом, облачности и скорости ветра. Ночью, в пасмурную погоду, а также при ветре 12 м/с и более поправка равна нулю.
  • P - Атмосферное давление - приведенное к уровню моря атмосферное давление.
  • Po - Атмосферное давление - измеренное на уровне метеостанции атмосферное давление.
  • Tmin - Минимальная температура - минимум температуры воздуха на высоте 2 м над землей.
  • Tmax - Максимальная температура - максимум температуры воздуха на высоте 2 м над землей.
  • R - Количество осадков - Количество выпавших осадков за период времени, мм. При наведении курсора мыши на число - период времени, за который выпало указанное количество осадков.
  • R24 - Количество осадков - Количество выпавших осадков за 24 часа, мм.
  • S - Снежный покров - Высота снежного покрова, см. При наведении курсора мыши на число - состояние снежного покрова и степень покрытия местности в баллах.